Weather History for Iowa City, IA

Change the Weather History Date:

Tuesday, October 22, 2013

  Actual Average Record
Temperature  
Mean Temperature 34 °F 50 °F  
Max Temperature 39 °F 60 °F 83 °F (1979)
Min Temperature 28 °F 39 °F 20 °F (1976)
Degree Days  
Heating Degree Days 31 15  
Month to date heating degree days 238 259  
Since 1 July heating degree days 304 371  
Cooling Degree Days 0 0  
Month to date cooling degree days 23 10  
Year to date cooling degree days 1064 912  
Moisture  
Dew Point 33 °F    
Average Humidity 84    
Maximum Humidity 92    
Minimum Humidity 76    
Precipitation  
Precipitation 0.18 in 0.10 in 1.65 in (2001)
Month to date precipitation 1.74 2.01  
Year to date precipitation 31.93 31.55  
Sea Level Pressure  
Sea Level Pressure 29.99 in    
Wind  
Wind Speed 6 mph (NNE)    
Max Wind Speed 14 mph    
Max Gust Speed 18 mph    
Visibility 10 miles    
Events Rain , Snow    
T = Trace of Precipitation, MM = Missing Value Source: NWS Daily Summary

Daily Weather History Graph

Daily Weather History Graph

Search for Another Location

Airport:

Trip Planner

Search our weather history database for the weather conditions in past years. The results will help you decide how hot, cold, wet, or windy it might be!

Date:

Astronomy

Oct. 22, 2013 Rise Set
Actual Time 7:26 AM CDT 6:13 PM CDT
Civil Twilight 6:58 AM CDT 6:42 PM CDT
Nautical Twilight 6:25 AM CDT 7:14 PM CDT
Astronomical Twilight 5:53 AM CDT 7:46 PM CDT
Moon 8:52 PM CDT (10/22) 10:57 AM CDT (10/22)
Length of Visible Light 11h 43m
Length of Day
10h 47m
Waning Gibbous, 86% of the Moon is Illuminated
Oct 22
Waning Gibbous
Oct 26
Last Quarter
Nov 3
New
Nov 9
First Quarter
Nov 17
Full

Hourly Weather History & Observations

Time (CDT) Temp. Windchill Dew Point Humidity Pressure Visibility Wind Dir Wind Speed Gust Speed Precip Events Conditions
12:52 AM 28.9 °F - 25.0 °F 85% 30.03 in 10.0 mi Calm Calm - N/A   Clear
1:52 AM 28.0 °F - 25.0 °F 88% 30.03 in 10.0 mi Calm Calm - N/A   Clear
2:52 AM 30.0 °F - 26.1 °F 85% 30.02 in 10.0 mi Calm Calm - N/A   Scattered Clouds
3:52 AM 32.0 °F - 28.9 °F 88% 30.01 in 10.0 mi Calm Calm - N/A   Overcast
4:52 AM 33.1 °F - 30.0 °F 89% 30.00 in 10.0 mi Calm Calm - N/A   Overcast
5:32 AM 35.6 °F 32.8 °F 30.2 °F 81% 29.98 in 10.0 mi SE 3.5 mph - 0.00 in Rain Light Rain
5:52 AM 35.1 °F 32.2 °F 30.9 °F 85% 30.00 in 10.0 mi ESE 3.5 mph - 0.00 in Rain Light Rain
6:41 AM 35.6 °F - 33.8 °F 93% 29.97 in 10.0 mi Calm Calm - 0.01 in Rain Light Rain
6:52 AM 36.0 °F - 33.1 °F 89% 29.99 in 10.0 mi Calm Calm - 0.02 in Rain Light Rain
7:06 AM 35.6 °F 32.8 °F 33.8 °F 93% 29.96 in 10.0 mi East 3.5 mph - 0.01 in Rain Light Rain
7:52 AM 36.0 °F 33.3 °F 34.0 °F 93% 29.96 in 10.0 mi East 3.5 mph - 0.04 in Rain Light Rain
8:31 AM 35.6 °F 30.7 °F 33.8 °F 93% 29.94 in 10.0 mi ENE 5.8 mph - 0.02 in Rain Light Rain
8:52 AM 37.0 °F 31.0 °F 35.1 °F 93% 29.96 in 10.0 mi ENE 8.1 mph - 0.05 in Rain Light Rain
9:20 AM 37.4 °F 30.8 °F 35.6 °F 93% 29.95 in 10.0 mi ENE 9.2 mph - 0.03 in Rain Light Rain
9:52 AM 36.0 °F 29.6 °F 34.0 °F 93% 29.97 in 10.0 mi East 8.1 mph - 0.03 in   Overcast
10:04 AM 35.6 °F 28.0 °F 33.8 °F 93% 29.95 in 10.0 mi East 10.4 mph - 0.00 in   Overcast
10:40 AM 35.6 °F 28.6 °F 33.8 °F 93% 29.94 in 10.0 mi ENE 9.2 mph - 0.00 in   Overcast
10:52 AM 35.1 °F 26.9 °F 34.0 °F 96% 29.96 in 10.0 mi ENE 11.5 mph - 0.00 in   Overcast
11:31 AM 35.6 °F 29.9 °F 33.8 °F 93% 29.94 in 8.0 mi East 6.9 mph - 0.01 in   Overcast
11:52 AM 36.0 °F 30.3 °F 34.0 °F 93% 29.96 in 9.0 mi NE 6.9 mph - 0.01 in   Overcast
12:52 PM 35.1 °F 27.9 °F 34.0 °F 96% 29.96 in 8.0 mi NE 9.2 mph - 0.02 in Snow Light Snow
1:52 PM 36.0 °F 28.0 °F 35.1 °F 97% 29.95 in 10.0 mi NNE 11.5 mph - 0.00 in Rain Light Rain
2:52 PM 37.0 °F 31.0 °F 35.1 °F 93% 29.96 in 10.0 mi NNE 8.1 mph - 0.01 in   Overcast
3:35 PM 37.4 °F 31.4 °F 35.6 °F 93% 29.95 in 10.0 mi NNE 8.1 mph - 0.00 in   Overcast
3:52 PM 37.9 °F 32.1 °F 35.1 °F 89% 29.98 in 10.0 mi NNE 8.1 mph - 0.00 in   Overcast
4:52 PM 39.0 °F 34.8 °F 36.0 °F 89% 30.00 in 10.0 mi North 5.8 mph - N/A   Overcast
5:01 PM 39.2 °F 33.6 °F 35.6 °F 87% 29.98 in 10.0 mi NNW 8.1 mph - N/A   Overcast
5:52 PM 39.0 °F 32.8 °F 36.0 °F 89% 30.01 in 10.0 mi NNW 9.2 mph - N/A   Overcast
6:31 PM 39.2 °F 35.0 °F 35.6 °F 87% 30.00 in 10.0 mi NW 5.8 mph - N/A   Overcast
6:52 PM 39.0 °F 34.0 °F 36.0 °F 89% 30.02 in 10.0 mi NW 6.9 mph - N/A   Overcast
7:52 PM 37.9 °F 33.5 °F 35.1 °F 89% 30.04 in 10.0 mi WNW 5.8 mph - N/A   Overcast
8:52 PM 37.9 °F 32.7 °F 34.0 °F 86% 30.04 in 10.0 mi WNW 6.9 mph - N/A   Overcast
9:52 PM 37.0 °F 30.4 °F 33.1 °F 86% 30.06 in 10.0 mi NW 9.2 mph - N/A   Overcast
10:52 PM 37.0 °F 32.4 °F 30.9 °F 79% 30.06 in 10.0 mi NW 5.8 mph - N/A   Mostly Cloudy
11:52 PM 35.1 °F 29.3 °F 30.0 °F 82% 30.06 in 10.0 mi NW 6.9 mph - N/A   Overcast